This is the latest recevied weather packets stored in our database for station/object W7PLC. If no packets are shown the sender has not sent any weather packets the latest 10 day(s).
| Time | Temp. | Humidity | Pressure | Rain* | Wind** | Luminosity | Snow |
|---|---|---|---|---|---|---|---|
| 1777430504 | 12.22° C | 70% | 1021.9 hPa | 0 mm | - | 4 W/m² | - |
| 1777430199 | 12.22° C | 71% | 1021.9 hPa | 0 mm | - | 6 W/m² | - |
| 1777429894 | 12.22° C | 70% | 1022.1 hPa | 0 mm | - | 7 W/m² | - |
| 1777429592 | 12.22° C | 70% | 1021.8 hPa | 0 mm | - | 10 W/m² | - |
| 1777429287 | 12.22° C | 70% | 1021.9 hPa | 0 mm | - | 10 W/m² | - |
| 1777428982 | 12.22° C | 70% | 1021.7 hPa | 0 mm | - | 13 W/m² | - |
| 1777428679 | 12.78° C | 70% | 1021.7 hPa | 0 mm | - | 13 W/m² | - |
| 1777428375 | 12.78° C | 70% | 1021.6 hPa | 0 mm | - | 16 W/m² | - |
| 1777428070 | 12.78° C | 71% | 1021.7 hPa | 0 mm | - | 17 W/m² | - |
| 1777427767 | 12.78° C | 70% | 1021.7 hPa | 0 mm | - | 19 W/m² | - |
| 1777427465 | 12.78° C | 70% | 1021.7 hPa | 0 mm | - | 20 W/m² | - |
| 1777427159 | 12.78° C | 70% | 1021.6 hPa | 0 mm | - | 20 W/m² | - |
| 1777426858 | 12.78° C | 70% | 1022 hPa | 0 mm | - | 22 W/m² | - |
| 1777426554 | 12.78° C | 68% | 1021.7 hPa | 0 mm | - | 23 W/m² | - |
| 1777426250 | 12.78° C | 69% | 1021.8 hPa | 0 mm | - | 26 W/m² | - |
| 1777425945 | 12.78° C | 69% | 1021.7 hPa | 0 mm | - | 27 W/m² | - |
| 1777425640 | 12.78° C | 69% | 1021.8 hPa | 0 mm | - | 30 W/m² | - |
| 1777425337 | 12.78° C | 70% | 1021.8 hPa | 0 mm | - | 33 W/m² | - |
| 1777425033 | 12.78° C | 70% | 1021.9 hPa | 0 mm | - | 38 W/m² | - |
| 1777424729 | 12.78° C | 69% | 1021.8 hPa | 0 mm | - | 42 W/m² | - |
| 1777424424 | 12.78° C | 69% | 1021.8 hPa | 0 mm | - | 42 W/m² | - |
| 1777424120 | 12.78° C | 69% | 1021.9 hPa | 0 mm | - | 40 W/m² | - |
| 1777423818 | 12.78° C | 69% | 1022 hPa | 0 mm | - | 38 W/m² | - |
| 1777423514 | 12.78° C | 70% | 1021.7 hPa | 0 mm | - | 35 W/m² | - |
| 1777423209 | 12.78° C | 71% | 1022 hPa | 0 mm | - | 32 W/m² | - |
* Rain latest hour (hover to see other rain measurements)
** Current wind speed in m/s (hover to see current wind gust speed)